| time (UTC) | temp F | wind direction | speed knots | gust knots | rain 1hr in | rain 24hr in | rain mn in | humidity % | barometer mb |
| 20260506044538 | 52 | 200 | 4.3 | 11.3 | 0.00 | 0.00 | 0.00 | 85 | 1009.9 |
| 20260506043036 | 52 | 153 | 3.5 | 9.6 | 0.00 | 0.00 | 0.00 | 86 | 1009.5 |
| 20260506041542 | 52 | 219 | 4.3 | 12.2 | 0.00 | 0.00 | 0.00 | 86 | 1009.8 |
| 20260506040046 | 52 | 205 | 3.5 | 13.0 | 0.00 | 0.00 | 0.00 | 85 | 1009.6 |
| 20260506034541 | 52 | 213 | 5.2 | 11.3 | 0.00 | 0.00 | 0.00 | 84 | 1009.7 |
| 20260506033039 | 52 | 166 | 3.5 | 13.9 | 0.00 | 0.00 | 0.00 | 84 | 1009.6 |
| 20260506031540 | 53 | 206 | 3.5 | 9.6 | 0.00 | 0.00 | 0.00 | 83 | 1009.6 |
| 20260506030044 | 53 | 232 | 3.5 | 11.3 | 0.00 | 0.00 | 0.00 | 82 | 1009.7 |
| 20260506024557 | 53 | 212 | 2.6 | 8.7 | 0.00 | 0.00 | 0.00 | 81 | 1009.5 |
| 20260506023042 | 54 | 178 | 4.3 | 12.2 | 0.00 | 0.00 | 0.00 | 80 | 1009.7 |
| 20260506021540 | 55 | 183 | 3.5 | 9.6 | 0.00 | 0.00 | 0.00 | 79 | 1010.1 |
| 20260506020040 | 55 | 190 | 3.5 | 9.6 | 0.00 | 0.00 | 0.00 | 78 | 1009.9 |
| 20260506014537 | 56 | 206 | 3.5 | 13.9 | 0.00 | 0.00 | 0.00 | 77 | 1009.9 |
| 20260506013035 | 56 | 166 | 2.6 | 11.3 | 0.00 | 0.00 | 0.00 | 76 | 1010.0 |
| 20260506011559 | 56 | 197 | 2.6 | 12.2 | 0.00 | 0.00 | 0.00 | 77 | 1009.5 |
| 20260506010043 | 56 | 193 | 5.2 | 13.9 | 0.00 | 0.00 | 0.00 | 78 | 1009.5 |
| 20260506004557 | 56 | 168 | 2.6 | 8.7 | 0.00 | 0.00 | 0.00 | 76 | 1009.1 |
| 20260506003039 | 57 | 189 | 2.6 | 10.4 | 0.00 | 0.00 | 0.00 | 76 | 1008.8 |
| 20260506001537 | 57 | 182 | 1.7 | 9.6 | 0.00 | 0.00 | 0.00 | 75 | 1008.7 |
| 20260505234543 | 55 | 206 | 6.1 | 23.5 | 0.00 | 0.00 | 0.00 | 79 | 1008.8 |
| 20260505233040 | 54 | 251 | 7.8 | 26.9 | 0.00 | 0.00 | 0.00 | 78 | 1008.7 |
| 20260505231541 | 55 | 226 | 7.0 | 20.0 | 0.00 | 0.00 | 0.00 | 78 | 1006.7 |
| 20260505230057 | 56 | 205 | 9.6 | 20.9 | 0.00 | 0.00 | 0.00 | 77 | 1006.4 |
| 20260505224540 | 57 | 200 | 7.0 | 24.3 | 0.00 | 0.00 | 0.00 | 74 | 1006.3 |
| 20260505223038 | 58 | 213 | 7.0 | 20.0 | 0.00 | 0.00 | 0.00 | 73 | 1005.7 |
| 20260505221535 | 58 | 186 | 7.0 | 20.9 | 0.00 | 0.00 | 0.00 | 73 | 1005.8 |
| 20260505220043 | 59 | 196 | 6.1 | 21.7 | 0.00 | 0.00 | 0.00 | 73 | 1005.8 |
| 20260505214540 | 59 | 186 | 6.1 | 21.7 | 0.00 | 0.00 | 0.00 | 72 | 1005.7 |
| 20260505213038 | 61 | 210 | 7.0 | 20.9 | 0.00 | 0.00 | 0.00 | 69 | 1005.9 |
| 20260505211540 | 62 | 162 | 7.0 | 16.5 | 0.00 | 0.00 | 0.00 | 68 | 1005.7 |
| 20260505210042 | 62 | 225 | 3.5 | 14.8 | 0.00 | 0.00 | 0.00 | 69 | 1005.9 |
| 20260505204549 | 62 | 162 | 5.2 | 13.0 | 0.00 | 0.00 | 0.00 | 68 | 1005.9 |
| 20260505203052 | 63 | 186 | 3.5 | 18.2 | 0.00 | 0.00 | 0.00 | 68 | 1005.9 |
| 20260505201535 | 63 | 163 | 3.5 | 13.0 | 0.00 | 0.00 | 0.00 | 69 | 1006.1 |
| 20260505200046 | 62 | 154 | 4.3 | 13.0 | 0.00 | 0.00 | 0.00 | 70 | 1006.2 |
| 20260505194553 | 62 | 181 | 4.3 | 13.9 | 0.00 | 0.00 | 0.00 | 70 | 1006.6 |
| 20260505193042 | 62 | 171 | 4.3 | 13.9 | 0.00 | 0.00 | 0.00 | 72 | 1006.9 |
| 20260505191553 | 61 | 150 | 5.2 | 18.2 | 0.00 | 0.00 | 0.00 | 72 | 1006.9 |
| 20260505190040 | 62 | 159 | 4.3 | 13.0 | 0.00 | 0.00 | 0.00 | 71 | 1007.1 |
| 20260505184537 | 62 | 220 | 2.6 | 14.8 | 0.00 | 0.00 | 0.00 | 73 | 1007.3 |
| 20260505183035 | 61 | 180 | 4.3 | 13.9 | 0.00 | 0.00 | 0.00 | 73 | 1007.4 |
| 20260505181537 | 60 | 205 | 4.3 | 9.6 | 0.00 | 0.00 | 0.00 | 73 | 1007.6 |
| 20260505180046 | 60 | 171 | 2.6 | 13.0 | 0.00 | 0.00 | 0.00 | 74 | 1007.8 |
| 20260505174541 | 61 | 198 | 4.3 | 12.2 | 0.00 | 0.00 | 0.00 | 73 | 1008.2 |
| 20260505173038 | 61 | 202 | 4.3 | 12.2 | 0.00 | 0.00 | 0.00 | 72 | 1008.5 |
| 20260505171534 | 60 | 133 | 3.5 | 9.6 | 0.00 | 0.00 | 0.00 | 73 | 1008.4 |
| 20260505170042 | 61 | 179 | 1.7 | 9.6 | 0.00 | 0.00 | 0.00 | 73 | 1008.6 |
| 20260505164542 | 61 | 211 | 4.3 | 12.2 | 0.00 | 0.00 | 0.00 | 73 | 1008.8 |
| 20260505163039 | 60 | 207 | 4.3 | 9.6 | 0.00 | 0.00 | 0.00 | 73 | 1009.1 |
| 20260505161536 | 60 | 205 | 7.0 | 15.6 | 0.00 | 0.00 | 0.00 | 73 | 1009.2 |
| 20260505153042 | 55 | 186 | 6.1 | 16.5 | 0.00 | 0.00 | 0.00 | 82 | 1009.8 |
| 20260505151541 | 55 | 215 | 3.5 | 13.0 | 0.00 | 0.00 | 0.00 | 82 | 1009.8 |
| 20260505124552 | 55 | 211 | 6.1 | 15.6 | 0.00 | 0.00 | 0.00 | 79 | 1009.6 |
| 20260505123053 | 54 | 190 | 5.2 | 11.3 | 0.00 | 0.00 | 0.00 | 80 | 1009.6 |
| 20260505121607 | 53 | 153 | 5.2 | 13.0 | 0.00 | 0.00 | 0.00 | 81 | 1009.8 |
| 20260505120045 | 53 | 142 | 6.1 | 18.2 | 0.00 | 0.00 | 0.00 | 82 | 1010.1 |
| 20260505114542 | 52 | 186 | 2.6 | 8.7 | 0.00 | 0.00 | 0.00 | 84 | 1009.9 |
| 20260505113046 | 51 | 200 | 2.6 | 9.6 | 0.00 | 0.00 | 0.00 | 87 | 1010.0 |
| 20260505111545 | 49 | 189 | 1.7 | 8.7 | 0.00 | 0.00 | 0.00 | 89 | 1010.0 |
| 20260505101540 | 48 | 215 | 0.9 | 4.3 | 0.00 | 0.00 | 0.00 | 87 | 1009.6 |
| 20260505100054 | 48 | 186 | 1.7 | 7.0 | 0.00 | 0.00 | 0.00 | 87 | 1009.6 |
| 20260505094543 | 48 | 186 | 1.7 | 7.8 | 0.00 | 0.00 | 0.00 | 88 | 1009.6 |
| 20260505093036 | 47 | 194 | 0.9 | 6.1 | 0.00 | 0.00 | 0.00 | 87 | 1009.6 |
| 20260505091550 | 48 | 183 | 0.9 | 5.2 | 0.00 | 0.00 | 0.00 | 86 | 1009.6 |
| 20260505090053 | 48 | 135 | 0.9 | 9.6 | 0.00 | 0.00 | 0.00 | 86 | 1009.7 |
| 20260505084535 | 48 | 220 | 0.9 | 6.1 | 0.00 | 0.00 | 0.00 | 86 | 1009.8 |
| 20260505083048 | 48 | 118 | 0.9 | 5.2 | 0.00 | 0.00 | 0.00 | 86 | 1009.6 |
| 20260505081542 | 48 | 194 | 0.9 | 6.1 | 0.00 | 0.00 | 0.00 | 85 | 1009.8 |
| 20260505080045 | 48 | 222 | 1.7 | 6.1 | 0.00 | 0.00 | 0.00 | 84 | 1009.9 |
| 20260505074539 | 48 | 148 | 1.7 | 6.1 | 0.00 | 0.00 | 0.00 | 84 | 1009.9 |
| 20260505073055 | 49 | 183 | 2.6 | 6.1 | 0.00 | 0.00 | 0.00 | 83 | 1009.7 |
| 20260505071544 | 49 | 161 | 0.9 | 5.2 | 0.00 | 0.00 | 0.00 | 83 | 1009.7 |
| 20260505070040 | 49 | 194 | 2.6 | 7.8 | 0.00 | 0.00 | 0.00 | 83 | 1009.7 |
| 20260505064536 | 49 | 184 | 0.9 | 4.3 | 0.00 | 0.00 | 0.00 | 81 | 1009.6 |
| 20260505063046 | 49 | 155 | 0.9 | 4.3 | 0.00 | 0.00 | 0.00 | 80 | 1009.6 |
| 20260505061539 | 50 | 197 | 1.7 | 5.2 | 0.00 | 0.00 | 0.00 | 79 | 1009.6 |
| 20260505060045 | 50 | 192 | 1.7 | 7.0 | 0.00 | 0.00 | 0.00 | 79 | 1009.6 |